QPF
0.00 0.00 0.00 0.00 0.00 0.00 0.00 0.00 0.00 0.00 0.00 0.00 0.00 0.00 0.00 0.00 0.00 0.00 0.00 0.00 0.00 0.00 0.00 0.00 0.00 0.00 0.00 0.00 0.00 0.00 0.00 0.00 0.00 0.01 0.00 0.00 0.00 0.00 0.00 0.02 0.11 0.05 0.01
0.00 0.00 0.00 0.00 0.00 0.00 0.00 0.00 0.00 0.00 0.00 0.00 0.00 0.00 0.00 0.00 0.00 0.00 0.00 0.00 0.00 0.00 0.00 0.00 0.00 0.00 0.00 0.00 0.00 0.00 0.00 0.00 0.00 0.01 0.02 0.00 0.00 0.00 0.01 0.03 0.14 0.06 0.03
0.00 0.00 0.00 0.00 0.00 0.00 0.00 0.00 0.00 0.00 0.00 0.00 0.00 0.00 0.00 0.00 0.00 0.00 0.00 0.00 0.00 0.00 0.00 0.00 0.00 0.00 0.00 0.00 0.00 0.00 0.00 0.00 0.00 0.03 0.05 0.06 0.03 0.01 0.04 0.03 0.09 0.17 0.04
0.00 0.00 0.00 0.00 0.00 0.00 0.00 0.00 0.00 0.00 0.00 0.00 0.00 0.00 0.00 0.00 0.00 0.00 0.00 0.00 0.00 0.00 0.00 0.00 0.00 0.00 0.00 0.00 0.00 0.00 0.00 0.00 0.00 0.01 0.09 0.17 0.07 0.03 0.11 0.07 0.10 0.16 0.04
0.00 0.00 0.00 0.00 0.00 0.00 0.00 0.00 0.00 0.00 0.00 0.00 0.00 0.00 0.00 0.00 0.00 0.00 0.00 0.00 0.00 0.00 0.00 0.00 0.00 0.00 0.00 0.00 0.00 0.00 0.00 0.00 0.00 0.02 0.25 0.40 0.14 0.01 0.03 0.03 0.01 0.04 0.12
0.00 0.00 0.00 0.00 0.00 0.00 0.00 0.00 0.00 0.00 0.00 0.00 0.00 0.00 0.00 0.00 0.00 0.00 0.00 0.00 0.00 0.00 0.00 0.00 0.00 0.00 0.00 0.00 0.00 0.00 0.00 0.00 0.00 0.07 0.11 0.16 0.07 0.05 0.02 0.03 0.01 0.05 0.18
0.00 0.00 0.00 0.00 0.00 0.00 0.00 0.00 0.00 0.00 0.00 0.00 0.00 0.00 0.00 0.00 0.00 0.00 0.00 0.00 0.00 0.00 0.00 0.00 0.00 0.00 0.00 0.00 0.00 0.00 0.00 0.00 0.02 0.03 0.03 0.04 0.02 0.01 0.00 0.03 0.01 0.01 0.10
0.00 0.00 0.00 0.00 0.00 0.00 0.00 0.00 0.00 0.00 0.00 0.00 0.00 0.00 0.00 0.00 0.00 0.00 0.00 0.00 0.00 0.00 0.00 0.00 0.00 0.00 0.00 0.00 0.00 0.00 0.00 0.00 0.04 0.17 0.03 0.00 0.00 0.00 0.00 0.00 0.00 0.03 0.03
0.00 0.00 0.00 0.00 0.00 0.00 0.00 0.00 0.00 0.00 0.00 0.00 0.00 0.00 0.00 0.00 0.00 0.00 0.00 0.00 0.00 0.00 0.00 0.00 0.00 0.00 0.00 0.00 0.00 0.00 0.00 0.00 0.04 0.12 0.03 0.01 0.00 0.00 0.00 0.00 0.00 0.00 0.01
0.00 0.00 0.00 0.00 0.00 0.00 0.00 0.00 0.00 0.00 0.00 0.00 0.00 0.00 0.00 0.00 0.00 0.00 0.00 0.00 0.00 0.00 0.00 0.00 0.00 0.00 0.00 0.00 0.00 0.00 0.00 0.00 0.02 0.03 0.03 0.03 0.00 0.00 0.00 0.00 0.00 0.00 0.00
0.00 0.00 0.01 0.01 0.00 0.00 0.00 0.00 0.00 0.00 0.00 0.00 0.00 0.00 0.00 0.00 0.00 0.00 0.00 0.00 0.00 0.00 0.00 0.00 0.00 0.00 0.00 0.00 0.00 0.00 0.00 0.00 0.01 0.04 0.18 0.05 0.00 0.00 0.00 0.00 0.01 0.01 0.01
0.00 0.00 0.00 0.01 0.01 0.00 0.00 0.00 0.00 0.00 0.00 0.00 0.00 0.00 0.00 0.00 0.00 0.00 0.00 0.00 0.01 0.02 0.00 0.00 0.00 0.00 0.00 0.00 0.00 0.00 0.00 0.01 0.03 0.06 0.21 0.02 0.00 0.00 0.00 0.00 0.02 0.05 0.04
0.00 0.00 0.00 0.00 0.00 0.01 0.00 0.00 0.00 0.00 0.00 0.00 0.00 0.00 0.00 0.00 0.00 0.00 0.01 0.00 0.00 0.00 0.00 0.00 0.00 0.00 0.00 0.00 0.02 0.01 0.00 0.01 0.02 0.02 0.03 0.00 0.00 0.00 0.00 0.00 0.00 0.00 0.00
0.00 0.00 0.00 0.00 0.00 0.03 0.01 0.00 0.00 0.00 0.00 0.00 0.00 0.00 0.00 0.00 0.00 0.00 0.00 0.00 0.01 0.00 0.00 0.00 0.00 0.00 0.00 0.00 0.03 0.01 0.01 0.02 0.05 0.05 0.04 0.00 0.00 0.00 0.01 0.00 0.00 0.00 0.00
0.00 0.00 0.00 0.00 0.01 0.02 0.01 0.00 0.00 0.00 0.00 0.00 0.00 0.00 0.00 0.00 0.00 0.00 0.00 0.00 0.00 0.00 0.00 0.00 0.00 0.00 0.00 0.00 0.00 0.00 0.00 0.00 0.01 0.02 0.04 0.01 0.00 0.00 0.00 0.00 0.00 0.01 0.00
0.00 0.00 0.00 0.00 0.00 0.04 0.15 0.01 0.01 0.00 0.00 0.00 0.00 0.00 0.00 0.00 0.00 0.00 0.01 0.00 0.00 0.00 0.00 0.00 0.01 0.01 0.00 0.00 0.00 0.00 0.00 0.00 0.00 0.02 0.01 0.01 0.00 0.00 0.00 0.02 0.01 0.00 0.01
0.00 0.00 0.00 0.00 0.00 0.00 0.06 0.09 0.01 0.02 0.00 0.00 0.00 0.00 0.00 0.00 0.00 0.00 0.00 0.00 0.00 0.00 0.00 0.00 0.01 0.01 0.00 0.01 0.00 0.00 0.00 0.00 0.00 0.00 0.02 0.01 0.00 0.00 0.00 0.00 0.01 0.01 0.04
0.00 0.00 0.00 0.00 0.00 0.00 0.02 0.08 0.03 0.00 0.00 0.00 0.00 0.00 0.00 0.00 0.00 0.00 0.00 0.00 0.00 0.01 0.00 0.00 0.00 0.00 0.00 0.00 0.00 0.01 0.00 0.00 0.00 0.00 0.00 0.02 0.01 0.00 0.00 0.00 0.00 0.00 0.00
0.00 0.00 0.00 0.00 0.00 0.00 0.05 0.07 0.02 0.03 0.00 0.00 0.00 0.00 0.00 0.00 0.00 0.00 0.00 0.00 0.00 0.00 0.00 0.00 0.00 0.00 0.00 0.00 0.00 0.01 0.01 0.00 0.00 0.00 0.00 0.00 0.01 0.02 0.02 0.01 0.00 0.00 0.00
0.00 0.00 0.00 0.00 0.00 0.00 0.03 0.13 0.16 0.15 0.08 0.01 0.00 0.00 0.00 0.00 0.00 0.00 0.00 0.00 0.00 0.00 0.00 0.00 0.00 0.00 0.00 0.00 0.00 0.00 0.00 0.00 0.00 0.00 0.00 0.00 0.00 0.00 0.02 0.03 0.00 0.00 0.00
0.00 0.00 0.00 0.00 0.00 0.00 0.03 0.11 0.14 0.13 0.09 0.08 0.00 0.00 0.00 0.00 0.00 0.00 0.00 0.00 0.00 0.00 0.00 0.00 0.00 0.00 0.00 0.00 0.00 0.00 0.00 0.00 0.00 0.00 0.00 0.00 0.00 0.00 0.00 0.01 0.02 0.01 0.00
0.00 0.00 0.00 0.00 0.00 0.00 0.00 0.03 0.11 0.17 0.12 0.03 0.01 0.00 0.00 0.00 0.00 0.00 0.00 0.00 0.00 0.00 0.00 0.00 0.00 0.00 0.00 0.00 0.01 0.00 0.00 0.00 0.00 0.00 0.00 0.00 0.00 0.00 0.00 0.00 0.01 0.02 0.02
0.00 0.00 0.00 0.00 0.00 0.00 0.00 0.04 0.09 0.14 0.18 0.14 0.09 0.00 0.00 0.00 0.00 0.00 0.00 0.00 0.00 0.00 0.00 0.00 0.00 0.00 0.00 0.00 0.00 0.00 0.00 0.00 0.00 0.00 0.00 0.00 0.00 0.00 0.00 0.00 0.00 0.01 0.02
0.00 0.00 0.00 0.00 0.00 0.00 0.00 0.02 0.10 0.18 0.23 0.09 0.04 0.01 0.00 0.00 0.00 0.00 0.00 0.00 0.00 0.00 0.00 0.00 0.00 0.00 0.00 0.00 0.00 0.00 0.00 0.00 0.00 0.00 0.01 0.00 0.00 0.00 0.00 0.00 0.00 0.00 0.00
0.00 0.00 0.00 0.00 0.00 0.00 0.00 0.00 0.06 0.14 0.09 0.06 0.06 0.03 0.00 0.00 0.00 0.00 0.00 0.00 0.00 0.00 0.00 0.00 0.00 0.00 0.00 0.00 0.00 0.00 0.00 0.00 0.00 0.00 0.00 0.01 0.00 0.00 0.00 0.00 0.00 0.00 0.00
0.00 0.00 0.00 0.00 0.00 0.00 0.00 0.00 0.03 0.11 0.26 0.42 0.34 0.29 0.17 0.11 0.07 0.02 0.03 0.03 0.01 0.00 0.01 0.01 0.02 0.00 0.02 0.01 0.00 0.00 0.00 0.00 0.00 0.00 0.00 0.00 0.00 0.00 0.00 0.00 0.00 0.00 0.00
MSLP
1005.41 1006.16 1006.77 1007.19 1007.55 1008.00 1008.32 1008.67 1009.24 1009.96 1010.38 1010.78 1011.04 1011.34 1011.60 1011.79 1012.03 1012.42 1012.68 1012.81 1013.03 1013.29 1013.62 1013.97 1014.11 1014.18 1014.28 1014.40 1014.59 1014.65 1014.59 1014.55 1014.54 1014.70 1015.04 1015.32 1015.43 1015.46 1015.65 1015.82 1016.29 1016.66 1016.68
1005.65 1006.14 1006.50 1007.27 1007.79 1008.21 1008.55 1008.94 1009.21 1009.99 1010.44 1010.87 1011.27 1011.56 1011.80 1012.05 1012.30 1012.67 1012.97 1013.24 1013.38 1013.54 1013.87 1014.15 1014.35 1014.40 1014.47 1014.53 1014.72 1014.85 1014.83 1014.81 1014.89 1015.10 1015.41 1015.75 1016.07 1016.14 1016.10 1016.07 1016.47 1017.04 1017.22
1005.73 1006.32 1006.89 1007.33 1007.96 1008.17 1008.69 1009.17 1009.35 1010.05 1010.45 1010.91 1011.26 1011.68 1012.06 1012.35 1012.57 1012.79 1013.15 1013.47 1013.71 1013.88 1014.06 1014.24 1014.42 1014.63 1014.66 1014.76 1014.92 1014.97 1015.02 1015.07 1015.27 1015.56 1015.61 1015.83 1016.06 1016.49 1016.58 1016.34 1016.88 1017.18 1017.42
1005.35 1006.28 1006.85 1007.71 1008.18 1008.45 1008.74 1009.08 1009.47 1009.93 1010.55 1011.03 1011.39 1011.70 1012.11 1012.52 1012.80 1013.03 1013.27 1013.58 1013.86 1014.08 1014.27 1014.43 1014.52 1014.76 1014.91 1014.99 1015.16 1015.11 1015.11 1015.22 1015.65 1015.90 1016.08 1016.02 1016.16 1016.45 1016.98 1016.78 1017.05 1017.51 1017.81
1004.84 1005.94 1006.76 1007.82 1008.42 1008.92 1008.96 1009.29 1009.57 1009.88 1010.36 1010.98 1011.41 1011.83 1012.19 1012.46 1012.85 1013.19 1013.54 1013.77 1013.97 1014.16 1014.47 1014.57 1014.80 1014.85 1015.15 1015.21 1015.30 1015.36 1015.29 1015.37 1015.80 1016.05 1016.80 1017.28 1016.72 1016.65 1017.11 1017.09 1017.21 1017.56 1017.98
1004.70 1005.44 1007.33 1008.23 1008.54 1009.18 1009.44 1009.72 1009.87 1010.11 1010.53 1010.90 1011.40 1011.73 1012.16 1012.57 1012.81 1013.23 1013.55 1013.88 1014.07 1014.27 1014.55 1014.72 1015.09 1015.17 1015.28 1015.53 1015.59 1015.52 1015.55 1015.55 1015.76 1016.04 1016.43 1016.40 1016.58 1016.95 1017.27 1017.28 1017.60 1017.86 1018.28
1006.04 1006.64 1007.43 1008.19 1008.88 1009.45 1009.74 1009.94 1010.19 1010.34 1010.59 1010.93 1011.35 1011.72 1012.08 1012.58 1012.87 1013.23 1013.59 1013.81 1014.09 1014.29 1014.67 1014.99 1015.29 1015.41 1015.50 1015.69 1015.74 1015.78 1015.68 1015.78 1015.65 1015.42 1015.87 1016.36 1016.78 1017.04 1017.27 1017.53 1018.04 1018.59 1018.56
1006.87 1007.23 1008.19 1008.73 1008.83 1009.38 1009.73 1009.90 1010.24 1010.59 1010.77 1011.01 1011.35 1011.72 1012.03 1012.50 1012.87 1013.23 1013.62 1013.94 1014.10 1014.40 1014.79 1015.13 1015.44 1015.64 1015.72 1015.82 1015.94 1015.94 1015.84 1015.95 1015.75 1015.67 1015.95 1016.30 1016.85 1017.03 1017.33 1017.70 1018.12 1018.69 1019.19
1007.11 1007.59 1008.26 1008.84 1009.22 1009.60 1009.81 1010.04 1010.39 1010.72 1010.91 1011.08 1011.34 1011.69 1012.10 1012.48 1012.91 1013.25 1013.64 1013.96 1014.30 1014.50 1014.78 1015.13 1015.44 1015.67 1015.85 1015.98 1015.93 1016.05 1016.05 1016.09 1016.05 1015.97 1015.90 1016.44 1016.98 1017.27 1017.63 1018.06 1018.37 1018.74 1018.78
1007.24 1007.53 1008.23 1008.65 1009.22 1009.67 1009.94 1010.13 1010.53 1010.78 1011.06 1011.26 1011.38 1011.66 1011.94 1012.39 1012.89 1013.26 1013.56 1013.96 1014.27 1014.59 1014.87 1015.12 1015.36 1015.61 1015.79 1015.91 1016.02 1015.99 1016.12 1016.10 1015.99 1015.60 1016.12 1016.63 1017.08 1017.54 1017.92 1018.31 1018.66 1019.04 1019.34
1007.08 1007.30 1007.95 1008.63 1008.96 1009.30 1009.65 1009.89 1010.39 1010.73 1010.98 1011.22 1011.50 1011.81 1012.24 1012.38 1012.70 1013.04 1013.46 1013.65 1014.15 1014.54 1014.92 1015.19 1015.38 1015.59 1015.72 1015.98 1015.97 1015.99 1016.00 1015.84 1015.63 1015.76 1016.96 1017.56 1017.50 1017.64 1018.14 1018.49 1018.91 1019.22 1019.44
1006.88 1006.90 1007.36 1007.88 1008.75 1008.91 1009.06 1009.31 1010.02 1010.56 1010.81 1011.10 1011.27 1011.67 1011.82 1012.00 1012.29 1012.56 1012.95 1013.50 1013.89 1014.38 1014.82 1015.17 1015.43 1015.59 1015.69 1015.68 1015.96 1015.97 1015.90 1015.69 1015.65 1016.16 1016.72 1017.67 1017.99 1017.81 1018.22 1018.47 1018.84 1019.22 1019.38
1006.98 1006.77 1006.88 1007.35 1007.75 1008.62 1008.67 1008.75 1009.35 1009.71 1010.12 1010.50 1010.71 1011.09 1011.57 1011.66 1011.81 1012.09 1012.52 1013.11 1013.77 1014.21 1014.61 1015.10 1015.39 1015.47 1015.28 1015.05 1015.35 1015.65 1015.42 1015.45 1015.62 1015.59 1016.69 1017.32 1017.54 1017.68 1018.09 1018.55 1018.77 1018.94 1019.36
1007.73 1007.19 1006.76 1007.18 1007.16 1007.62 1008.00 1007.94 1008.48 1008.84 1009.26 1009.65 1009.96 1010.40 1010.95 1011.19 1011.40 1011.54 1011.94 1012.47 1013.00 1013.49 1013.90 1014.35 1014.71 1014.84 1014.80 1014.76 1014.90 1015.02 1015.09 1015.14 1015.84 1015.81 1016.72 1016.82 1017.06 1017.49 1017.97 1018.32 1018.66 1018.86 1019.18
1008.38 1007.96 1007.43 1007.17 1007.27 1007.18 1007.25 1007.30 1007.44 1008.01 1008.32 1008.68 1009.27 1009.69 1010.09 1010.63 1010.99 1011.08 1011.32 1011.73 1012.15 1012.65 1013.04 1013.56 1013.79 1014.17 1014.37 1014.31 1014.52 1014.69 1014.84 1014.81 1015.25 1015.81 1016.26 1016.82 1016.93 1017.20 1017.75 1018.16 1018.45 1018.79 1019.03
1008.75 1008.39 1007.86 1007.36 1007.05 1006.96 1007.44 1007.35 1007.44 1007.32 1007.47 1007.88 1008.17 1008.73 1009.32 1009.78 1010.26 1010.87 1010.97 1011.19 1011.44 1011.65 1012.18 1012.71 1013.14 1013.64 1013.88 1013.91 1014.40 1014.50 1014.54 1014.60 1014.81 1015.56 1016.05 1016.75 1016.78 1017.06 1017.32 1017.71 1018.14 1018.50 1018.79
1008.73 1008.47 1008.27 1007.83 1006.99 1006.72 1006.63 1007.08 1006.90 1007.44 1006.85 1007.26 1007.52 1007.76 1008.41 1008.83 1009.29 1010.01 1010.47 1010.80 1011.07 1011.25 1011.42 1012.02 1012.37 1013.07 1013.53 1013.80 1014.15 1014.36 1014.36 1014.47 1014.63 1014.95 1015.67 1016.16 1016.68 1016.93 1017.11 1017.38 1017.73 1018.06 1018.38
1010.26 1009.54 1008.47 1008.06 1007.41 1007.02 1006.38 1006.16 1006.62 1006.37 1006.58 1006.56 1007.13 1007.44 1007.94 1008.34 1008.56 1009.47 1010.02 1010.38 1010.64 1011.05 1011.43 1011.84 1012.26 1012.63 1013.18 1013.51 1013.80 1014.10 1014.35 1014.46 1014.53 1014.61 1015.16 1015.73 1016.16 1016.55 1017.05 1017.15 1017.42 1017.59 1017.90
1011.70 1010.83 1009.80 1008.95 1008.56 1008.02 1007.43 1006.68 1005.68 1005.99 1005.95 1006.23 1006.65 1007.02 1007.29 1007.94 1008.40 1008.93 1009.42 1009.86 1010.17 1010.88 1011.32 1011.89 1012.28 1012.45 1012.69 1013.02 1013.44 1013.73 1014.13 1014.36 1014.55 1014.38 1014.72 1015.10 1015.65 1015.97 1016.34 1016.68 1017.01 1017.26 1017.41
1013.10 1012.05 1011.37 1010.40 1008.89 1008.46 1007.91 1007.26 1005.96 1005.23 1005.51 1005.66 1005.81 1006.16 1006.50 1007.50 1008.06 1008.65 1008.82 1009.37 1009.95 1010.33 1010.93 1011.35 1012.05 1012.43 1012.49 1012.61 1012.86 1013.27 1013.66 1013.85 1014.11 1014.36 1014.51 1014.53 1014.87 1015.11 1015.48 1015.84 1016.41 1016.88 1017.07
1014.30 1013.50 1012.34 1011.28 1010.41 1009.49 1008.72 1007.91 1007.05 1005.75 1005.42 1005.36 1005.09 1005.48 1005.86 1006.46 1007.32 1008.27 1008.54 1009.14 1009.81 1010.31 1010.51 1011.09 1011.65 1012.42 1012.70 1012.65 1012.91 1013.18 1013.53 1013.56 1013.78 1013.91 1014.09 1014.21 1014.27 1014.45 1014.74 1015.07 1015.57 1016.11 1016.52
1015.41 1014.68 1013.61 1012.30 1011.50 1010.53 1009.71 1008.41 1007.69 1006.52 1004.81 1004.60 1004.46 1004.63 1004.94 1005.72 1006.82 1007.47 1008.03 1008.50 1009.03 1009.90 1010.38 1010.65 1011.44 1012.19 1012.64 1012.82 1013.14 1013.41 1013.47 1013.58 1013.53 1013.44 1013.52 1013.71 1013.77 1013.71 1014.05 1014.34 1014.70 1015.22 1015.57
1016.30 1015.53 1014.51 1013.35 1012.28 1011.18 1010.02 1008.76 1007.83 1006.76 1005.20 1003.94 1003.68 1003.73 1004.19 1004.61 1005.47 1006.32 1007.03 1007.51 1008.18 1009.19 1009.87 1010.51 1011.07 1011.54 1012.08 1012.40 1012.78 1013.04 1013.38 1013.02 1012.55 1012.46 1012.74 1012.98 1013.20 1013.33 1013.51 1013.72 1014.09 1014.39 1014.88
1017.06 1016.27 1015.12 1013.93 1012.64 1011.20 1010.08 1008.94 1008.02 1007.14 1005.56 1003.63 1002.46 1002.72 1003.17 1003.65 1004.04 1004.88 1006.00 1006.97 1007.55 1008.16 1008.99 1009.60 1010.46 1010.94 1011.43 1011.57 1012.26 1012.26 1012.20 1012.56 1012.53 1012.38 1012.46 1012.73 1012.80 1012.88 1012.94 1013.16 1013.36 1013.71 1013.98
1017.69 1016.81 1015.42 1014.09 1012.65 1011.35 1010.30 1009.22 1007.96 1006.56 1004.92 1003.13 1001.83 1001.74 1001.97 1002.98 1003.81 1004.56 1005.60 1006.76 1007.52 1007.89 1008.21 1008.30 1009.41 1010.32 1010.72 1011.07 1011.42 1011.94 1012.14 1012.01 1012.11 1012.47 1012.24 1012.25 1012.54 1012.33 1012.43 1012.71 1013.06 1013.18 1013.27
1018.23 1016.97 1015.62 1014.20 1012.49 1011.38 1010.21 1008.69 1007.57 1006.15 1004.45 1002.90 1002.82 1001.96 1000.78 1002.10 1003.62 1004.57 1005.32 1005.59 1006.85 1007.89 1008.06 1008.09 1008.19 1009.44 1010.00 1010.50 1010.59 1010.99 1011.05 1010.99 1011.16 1011.34 1011.52 1011.21 1011.45 1011.73 1011.40 1011.93 1012.42 1012.54 1012.52
Thickness
5818 5812 5807 5803 5800 5795 5792 5788 5782 5774 5770 5767 5765 5762 5758 5756 5753 5749 5745 5744 5741 5737 5732 5728 5726 5724 5722 5721 5718 5717 5718 5718 5718 5717 5713 5710 5708 5707 5705 5702 5696 5693 5692
5815 5809 5806 5799 5794 5790 5787 5782 5780 5772 5767 5763 5761 5758 5756 5753 5750 5746 5742 5739 5737 5734 5730 5726 5723 5721 5719 5719 5716 5714 5714 5714 5713 5710 5705 5700 5698 5697 5696 5696 5692 5687 5687
5812 5804 5799 5795 5790 5788 5783 5778 5776 5769 5765 5760 5758 5754 5751 5748 5746 5744 5740 5736 5733 5730 5727 5724 5722 5718 5716 5715 5713 5712 5711 5711 5707 5701 5700 5700 5696 5690 5689 5691 5687 5685 5684
5810 5802 5796 5788 5784 5782 5781 5777 5772 5766 5760 5756 5753 5751 5747 5744 5741 5739 5737 5734 5731 5727 5724 5722 5719 5717 5714 5712 5710 5710 5710 5709 5702 5695 5693 5692 5693 5692 5685 5687 5683 5679 5677
5807 5802 5794 5784 5778 5774 5775 5772 5769 5765 5759 5754 5750 5746 5743 5741 5738 5735 5732 5730 5728 5726 5721 5719 5715 5715 5711 5708 5707 5706 5706 5707 5700 5692 5681 5675 5683 5687 5680 5681 5679 5675 5670
5802 5799 5784 5776 5774 5768 5765 5764 5762 5760 5756 5752 5747 5744 5740 5737 5735 5731 5729 5726 5724 5722 5719 5717 5712 5711 5708 5705 5703 5703 5702 5703 5701 5693 5687 5685 5685 5681 5677 5678 5673 5669 5664
5784 5783 5776 5771 5766 5761 5758 5757 5755 5754 5752 5748 5744 5741 5738 5734 5732 5728 5725 5723 5720 5719 5715 5712 5709 5707 5706 5702 5701 5699 5699 5699 5700 5700 5694 5687 5681 5679 5676 5672 5667 5660 5657
5773 5772 5764 5762 5762 5758 5755 5754 5751 5748 5746 5744 5741 5738 5736 5731 5728 5725 5722 5719 5717 5714 5711 5709 5706 5704 5702 5700 5698 5696 5696 5695 5695 5695 5692 5688 5681 5678 5674 5668 5663 5656 5649
5768 5765 5758 5755 5752 5751 5750 5748 5745 5743 5741 5740 5738 5736 5732 5729 5725 5722 5718 5715 5712 5711 5709 5706 5704 5701 5699 5697 5696 5694 5692 5691 5691 5691 5689 5685 5678 5674 5668 5663 5659 5654 5650
5758 5758 5753 5750 5746 5743 5742 5742 5739 5737 5735 5735 5734 5733 5731 5727 5723 5719 5716 5713 5710 5707 5705 5703 5701 5699 5697 5695 5694 5692 5690 5689 5689 5691 5685 5680 5676 5668 5663 5659 5655 5650 5647
5750 5752 5749 5744 5742 5740 5738 5738 5736 5733 5731 5730 5729 5726 5724 5723 5721 5718 5714 5712 5708 5704 5702 5700 5698 5696 5695 5692 5692 5690 5689 5689 5690 5686 5673 5666 5667 5665 5659 5655 5651 5648 5646
5740 5745 5747 5744 5738 5737 5736 5736 5732 5728 5728 5726 5726 5724 5723 5721 5719 5717 5715 5711 5707 5703 5700 5697 5695 5693 5692 5691 5689 5688 5688 5688 5688 5681 5674 5666 5658 5662 5657 5653 5650 5647 5646
5730 5736 5740 5741 5739 5732 5732 5733 5730 5729 5727 5726 5725 5723 5719 5719 5718 5717 5715 5711 5706 5702 5699 5695 5693 5691 5691 5692 5689 5688 5689 5686 5687 5683 5673 5665 5663 5661 5656 5651 5648 5647 5644
5714 5723 5730 5733 5735 5733 5731 5734 5731 5730 5728 5727 5726 5723 5719 5717 5716 5717 5715 5712 5708 5704 5700 5698 5694 5692 5691 5691 5689 5689 5688 5686 5682 5681 5672 5670 5666 5661 5655 5651 5648 5645 5643
5699 5707 5715 5721 5725 5729 5730 5732 5732 5729 5730 5727 5724 5722 5720 5717 5714 5715 5716 5714 5711 5707 5704 5699 5697 5694 5691 5691 5689 5687 5686 5685 5680 5677 5673 5667 5664 5660 5654 5649 5647 5643 5641
5687 5693 5700 5707 5716 5721 5717 5722 5722 5725 5728 5726 5726 5723 5720 5718 5716 5710 5713 5713 5712 5712 5707 5702 5699 5695 5693 5691 5686 5684 5683 5683 5680 5675 5670 5663 5662 5659 5655 5651 5646 5642 5640
5676 5681 5685 5691 5703 5710 5714 5715 5719 5715 5724 5724 5725 5724 5720 5719 5717 5714 5711 5710 5709 5709 5709 5704 5701 5695 5692 5690 5685 5682 5681 5680 5678 5673 5669 5664 5659 5656 5654 5650 5646 5643 5639
5653 5657 5669 5677 5685 5692 5705 5708 5708 5715 5715 5720 5717 5717 5717 5714 5715 5711 5708 5707 5705 5704 5703 5702 5698 5695 5690 5687 5684 5681 5678 5676 5674 5673 5668 5664 5659 5655 5651 5649 5646 5643 5639
5626 5638 5647 5655 5661 5669 5680 5691 5704 5706 5709 5710 5712 5712 5714 5711 5708 5708 5707 5705 5702 5699 5697 5693 5691 5691 5689 5686 5682 5680 5676 5674 5672 5671 5668 5664 5660 5656 5652 5649 5646 5642 5640
5599 5610 5622 5630 5647 5655 5664 5673 5688 5699 5701 5704 5709 5713 5712 5705 5703 5702 5705 5702 5698 5696 5693 5692 5685 5685 5686 5684 5683 5678 5675 5674 5672 5668 5666 5664 5660 5656 5654 5651 5647 5641 5639
5567 5580 5592 5607 5618 5630 5640 5650 5662 5678 5688 5695 5704 5708 5709 5707 5701 5695 5699 5695 5692 5689 5690 5686 5683 5676 5675 5678 5674 5672 5671 5670 5668 5666 5665 5664 5663 5658 5654 5650 5647 5642 5639
5526 5539 5558 5575 5592 5600 5611 5628 5643 5660 5678 5689 5698 5702 5709 5704 5695 5694 5693 5693 5691 5685 5684 5683 5677 5669 5667 5668 5663 5661 5657 5662 5663 5664 5665 5663 5661 5661 5656 5652 5648 5643 5641
5490 5498 5515 5533 5556 5570 5582 5604 5625 5646 5664 5676 5689 5696 5698 5700 5698 5694 5691 5692 5689 5683 5679 5675 5673 5670 5663 5663 5662 5657 5648 5650 5661 5666 5663 5661 5659 5658 5657 5652 5648 5644 5639
5472 5475 5485 5497 5518 5542 5554 5581 5603 5623 5642 5672 5689 5692 5693 5696 5698 5696 5689 5685 5683 5682 5677 5674 5670 5667 5663 5661 5655 5659 5659 5656 5651 5650 5659 5658 5654 5654 5653 5650 5648 5643 5638
5455 5458 5466 5477 5492 5509 5527 5554 5584 5612 5639 5667 5681 5687 5691 5690 5688 5688 5682 5675 5672 5677 5674 5677 5670 5663 5661 5657 5654 5650 5651 5654 5654 5645 5642 5650 5652 5652 5650 5648 5643 5641 5638
5441 5443 5447 5457 5475 5486 5502 5534 5567 5599 5630 5650 5656 5670 5686 5680 5674 5671 5673 5672 5668 5667 5667 5668 5671 5662 5657 5654 5656 5651 5652 5651 5648 5647 5643 5649 5646 5649 5651 5648 5643 5639 5637